Latest Coastal Weather Observations for Lombadina

IDW60701

Issued at 12:55 pm WST Wednesday 22 October 2014 (issued every 10 minutes, with the page automatically refreshed every 10 minutes)

About coastal observations | Map of coastal stations | Coastal observations for WA | Marine services | Other Formats
Station Details ID: 503016 Name: LOMBADINA AIRSTRIP Lat: -16.52 Lon: 122.92 Height: 42.0 m
Data from the previous 72 hours. | See also: Recent months for locations in Western Australia
Date/Time
WST
Temp

°C
Wind Pressure Rain
since 9am
mm
Weather Cloud Vis
km
Sea
Height
m
Swell
Dir
 
Speed
knots
Gust
knots
hPa Trend Height
m
Period
s
Dir
22/12:30pm 30.3 NNW 8 14 1011.9 - 0.0 - - 10 - - - -
22/12:00pm 29.6 NNW 10 17 1012.1 - 0.0 - - 10 - - - -
22/11:30am 29.2 NW 10 16 1012.4 - 0.0 - - 10 - - - -
22/11:00am 29.9 NW 8 13 1013.1 - 0.0 - - 10 - - - -
22/10:30am 29.8 NNW 8 14 1013.2 - 0.0 - - 10 - - - -
22/10:00am 29.9 NNW 9 15 1013.3 - 0.0 - - 10 - - - -
22/09:30am 29.6 NNW 9 14 1013.6 - 0.0 - - 10 - - - -
22/09:00am 29.2 NW 9 13 1013.6 - 0.0 - - 10 - - - -
22/08:30am 28.4 NNW 7 12 1013.6 - 0.0 - - 10 - - - -
22/08:00am 28.3 NNW 8 11 1013.4 - 0.0 - Partly cloudy 10 - - - -
22/07:30am 27.4 NW 7 9 1013.3 - 0.0 - Partly cloudy 10 - - - -
22/07:00am 27.6 NNW 7 11 1013.3 - 0.0 - Partly cloudy 10 - - - -
22/06:30am 26.7 NW 7 11 1012.2 - 0.0 - Partly cloudy 10 - - - -
22/06:00am 26.2 NW 8 12 1012.0 - 0.0 - Mostly clear 10 - - - -
22/05:30am 25.7 NW 8 12 1011.7 - 0.0 - Partly cloudy 10 - - - -
22/05:00am 25.5 NW 6 11 1011.5 - 0.0 - - 10 - - - -
22/04:30am 24.7 NNW 4 6 1011.7 - 0.0 - - 10 - - - -
22/04:00am 24.7 N 3 4 1011.8 - 0.0 - Partly cloudy 10 - - - -
22/03:30am 24.8 N 3 4 1011.8 - 0.0 - Partly cloudy 10 - - - -
22/03:00am 24.9 NE 3 4 1011.7 - 0.0 - Mostly clear 10 - - - -
22/02:53am 25.0 NNE 3 4 1011.7 - 0.0 - Partly cloudy 10 - - - -
22/02:30am 25.5 NNW 3 5 1011.5 - 0.0 - Partly cloudy 10 - - - -
22/02:00am 25.7 NNW 3 7 1011.2 - 0.0 - Partly cloudy 10 - - - -
22/01:30am 25.5 NW 2 4 1011.1 - 0.0 - Partly cloudy 10 - - - -
22/01:04am 25.2 W 2 5 1011.3 - 0.0 - Partly cloudy 10 - - - -
22/01:00am 25.2 W 3 5 1011.3 - 0.0 - Partly cloudy 10 - - - -
22/12:30am 25.4 WNW 3 5 1011.5 - 0.0 - - 10 - - - -
22/12:00am 25.4 WNW 3 6 1012.0 - 0.0 - - 10 - - - -
 
Date/Time
WST
Temp

°C
Wind Pressure Rain
since 9am
mm
Weather Cloud Vis
km
Sea
Height
m
Swell
Dir
 
Speed
knots
Gust
knots
hPa Trend Height
m
Period
s
Dir
21/11:30pm 25.3 W 3 5 1012.4 - 0.0 - - 10 - - - -
21/11:00pm 25.9 WNW 2 4 1012.6 - 0.0 - - 10 - - - -
21/10:30pm 26.1 W 4 7 1012.6 - 0.0 - - 10 - - - -
21/10:00pm 26.2 W 4 8 1013.0 - 0.0 - - 10 - - - -
21/09:30pm 26.3 W 5 9 1013.3 - 0.0 - - 10 - - - -
21/09:00pm 26.5 W 5 8 1013.0 - 0.0 - - 10 - - - -
21/08:30pm 26.5 W 5 9 1012.8 - 0.0 - - 10 - - - -
21/08:00pm 26.7 W 7 12 1012.5 - 0.0 - - 10 - - - -
21/07:30pm 26.8 W 7 13 1012.5 - 0.0 - - 10 - - - -
21/07:00pm 26.9 W 6 13 1012.2 - 0.0 - - 10 - - - -
21/06:30pm 27.0 WNW 7 11 1011.8 - 0.0 - - 10 - - - -
21/06:00pm 27.2 W 7 13 1011.5 - 0.0 - - 10 - - - -
21/05:30pm 27.6 W 8 13 1011.2 - 0.0 - - 10 - - - -
21/05:00pm 28.2 W 7 12 1010.9 - 0.0 - - 10 - - - -
21/04:30pm 28.8 W 8 14 1010.7 - 0.0 - - 10 - - - -
21/04:00pm 29.8 W 7 14 1010.7 - 0.0 - - 10 - - - -
21/03:30pm 29.6 WNW 8 14 1010.7 - 0.0 - - 10 - - - -
21/03:00pm 30.7 W 6 12 1010.9 - 0.0 - - 10 - - - -
21/02:30pm 30.7 WNW 8 12 1011.0 - 0.0 - - 10 - - - -
21/02:00pm 31.1 W 7 13 1011.4 - 0.0 - - 10 - - - -
21/01:30pm 31.2 WNW 7 14 1011.8 - 0.0 - - 10 - - - -
21/01:00pm 31.9 WNW 8 13 1012.1 - 0.0 - - 10 - - - -
21/12:30pm 31.4 W 7 12 1012.6 - 0.0 - - 10 - - - -
21/12:00pm 31.6 WNW 8 12 1013.2 - 0.0 - - 10 - - - -
21/11:30am 31.6 WNW 8 13 1013.7 - 0.0 - - 10 - - - -
21/11:00am 31.2 NW 8 11 1014.1 - 0.0 - - 10 - - - -
21/10:30am 32.0 WNW 6 11 1014.5 - 0.0 - - 10 - - - -
21/10:00am 31.3 WNW 6 10 1014.6 - 0.0 - - 10 - - - -
21/09:30am 30.9 NW 6 10 1014.8 - 0.0 - - 10 - - - -
21/09:00am 31.2 WNW 5 9 1014.8 - 0.0 - - 10 - - - -
21/08:30am 31.1 SW 3 6 1015.0 - 0.0 - - 10 - - - -
21/08:00am 30.6 W 2 6 1015.2 - 0.0 - - 10 - - - -
21/07:30am 29.8 N 1 2 1015.1 - 0.0 - - 10 - - - -
21/07:00am 27.0 S 2 4 1015.2 - 0.0 - - 10 - - - -
21/06:30am 25.4 SSW 3 4 1014.8 - 0.0 - - 10 - - - -
21/06:00am 22.2 S 2 3 1014.5 - 0.0 - - 10 - - - -
21/05:30am 20.7 SSW 1 3 1014.0 - 0.0 - - 10 - - - -
21/05:00am 21.6 W 1 2 1013.5 - 0.0 - - 10 - - - -
21/04:30am 23.1 E 2 5 1013.0 - 0.0 - - 10 - - - -
21/04:00am 24.5 N 3 5 1012.7 - 0.0 - - 10 - - - -
21/03:30am 25.0 ENE 5 10 1012.1 - 0.0 - - 10 - - - -
21/03:00am 24.3 SW 5 9 1011.1 - 0.0 - - 10 - - - -
21/02:30am 24.5 SW 6 11 1010.6 - 0.0 - - 10 - - - -
21/02:00am 24.7 WSW 5 10 1010.6 - 0.0 - - 10 - - - -
21/01:30am 24.8 WSW 5 9 1010.8 - 0.0 - - 10 - - - -
21/01:00am 25.1 WSW 6 11 1011.0 - 0.0 - - 10 - - - -
21/12:30am 25.1 WSW 5 9 1011.4 - 0.0 - - 10 - - - -
21/12:00am 25.2 WSW 6 11 1011.6 - 0.0 - - 10 - - - -
 
Date/Time
WST
Temp

°C
Wind Pressure Rain
since 9am
mm
Weather Cloud Vis
km
Sea
Height
m
Swell
Dir
 
Speed
knots
Gust
knots
hPa Trend Height
m
Period
s
Dir
20/11:30pm 25.4 WSW 6 12 1011.9 - 0.0 - - 10 - - - -
20/11:00pm 25.4 WSW 6 11 1012.3 - 0.0 - - 10 - - - -
20/10:30pm 25.6 SW 7 12 1012.7 - 0.0 - - 10 - - - -
20/10:00pm 25.8 SW 7 12 1013.0 - 0.0 - - 10 - - - -
20/09:30pm 26.1 WSW 6 11 1013.1 - 0.0 - - 10 - - - -
20/09:00pm 26.2 WSW 5 10 1013.2 - 0.0 - - 10 - - - -
20/08:30pm 26.4 W 5 9 1013.0 - 0.0 - - 10 - - - -
20/08:00pm 26.5 WSW 5 10 1013.0 - 0.0 - - 10 - - - -
20/07:30pm 26.7 WSW 5 10 1012.8 - 0.0 - - 10 - - - -
20/07:00pm 26.9 WSW 5 11 1012.6 - 0.0 - - 10 - - - -
20/06:30pm 27.2 W 5 10 1012.3 - 0.0 - - 10 - - - -
20/06:00pm 27.7 WSW 5 10 1012.1 - 0.0 - - 10 - - - -
20/05:30pm 28.6 WSW 6 12 1011.7 - 0.0 - - 10 - - - -
20/05:00pm 29.2 W 5 10 1011.6 - 0.0 - - 10 - - - -
20/04:30pm 29.5 W 6 13 1011.3 - 0.0 - - 10 - - - -
20/04:00pm 29.6 W 8 15 1011.3 - 0.0 - - 10 - - - -
20/03:30pm 30.5 W 7 13 1011.3 - 0.0 - - 10 - - - -
20/03:00pm 30.2 W 7 14 1011.4 - 0.0 - - 10 - - - -
20/02:30pm 30.5 W 7 12 1011.5 - 0.0 - - 10 - - - -
20/02:00pm 30.8 WNW 8 15 1011.8 - 0.0 - Partly cloudy 6 - - - -
20/01:30pm 31.2 W 9 14 1012.1 - 0.0 - Partly cloudy 5 - - - -
20/01:00pm 31.0 W 8 15 1012.4 - 0.0 - - 10 - - - -
20/12:30pm 31.1 W 9 18 1012.9 - 0.0 - - 10 - - - -
20/12:00pm 31.3 W 7 13 1013.3 - 0.0 - Partly cloudy 5 - - - -
20/11:30am 30.8 WNW 7 14 1013.7 - 0.0 - - 10 - - - -
20/11:00am 32.2 WNW 6 12 1014.0 - 0.0 - - 10 - - - -
20/10:30am 31.1 WNW 7 11 1014.3 - 0.0 - - 10 - - - -
20/10:00am 30.8 WNW 6 12 1014.8 - 0.0 - - 10 - - - -
20/09:30am 31.5 SSW 4 8 1015.4 - 0.0 - - 10 - - - -
20/09:00am 30.4 SW 5 9 1015.7 - 0.4 - - 10 - - - -
20/08:30am 29.5 SW 4 7 1015.8 - 0.4 - - 10 - - - -
20/08:00am 27.8 WSW 3 6 1015.7 - 0.4 - - 10 - - - -
20/07:30am 26.7 SSW 4 6 1015.7 - 0.4 - - 10 - - - -
20/07:00am 25.5 SSW 2 4 1015.4 - 0.4 - - 10 - - - -
20/06:30am 24.2 SSW 1 3 1015.0 - 0.4 - - 10 - - - -
20/06:00am 21.6 SSW 1 2 1014.6 - 0.4 Recent precip. - 8 - - - -
20/05:46am 21.2 CALM 0 1 1014.3 - 0.4 - - 5 - - - -
20/05:30am 20.7 SW 1 2 1014.1 - 0.4 - - 4 - - - -
20/05:27am 20.8 CALM 0 2 1014.1 - 0.4 - - 4 - - - -
20/05:01am 20.5 CALM 0 0 1013.7 - 0.0 - - 5 - - - -
20/05:00am 20.5 CALM 0 0 1013.7 - 0.0 - - 5 - - - -
20/04:48am 20.4 CALM 0 0 1013.5 - 0.0 - - 4 - - - -
20/04:47am 20.4 CALM 0 0 1013.5 - 0.0 - - 4 - - - -
20/04:34am 20.7 CALM 0 0 1013.4 - 0.0 - - 4 - - - -
20/04:30am 20.4 CALM 0 0 1013.3 - 0.0 - - 5 - - - -
20/04:00am 21.0 CALM 0 0 1012.9 - 0.0 - - 10 - - - -
20/03:30am 21.3 ENE 1 2 1012.6 - 0.0 - - 9 - - - -
20/03:00am 21.2 CALM 0 2 1012.3 - 0.0 - - 9 - - - -
20/02:30am 21.8 E 1 1 1012.2 - 0.0 - - 10 - - - -
20/02:00am 22.8 CALM 0 2 1012.0 - 0.0 - - 10 - - - -
20/01:30am 23.4 SW 1 4 1012.0 - 0.0 - - 10 - - - -
20/01:00am 23.9 WSW 3 6 1012.0 - 0.0 - - 10 - - - -
20/12:30am 24.3 WSW 5 10 1012.2 - 0.0 - - 10 - - - -
20/12:00am 24.5 WSW 5 10 1012.4 - 0.0 - - 10 - - - -
 
Date/Time
WST
Temp

°C
Wind Pressure Rain
since 9am
mm
Weather Cloud Vis
km
Sea
Height
m
Swell
Dir
 
Speed
knots
Gust
knots
hPa Trend Height
m
Period
s
Dir
19/11:30pm 24.6 WSW 5 10 1012.6 - 0.0 - - 10 - - - -
19/11:00pm 24.8 WSW 5 9 1012.8 - 0.0 - - 10 - - - -
19/10:30pm 24.9 WSW 5 9 1012.9 - 0.0 - - 10 - - - -
19/10:00pm 25.3 SW 5 9 1013.0 - 0.0 - - 10 - - - -
19/09:30pm 25.4 W 5 8 1012.9 - 0.0 - - 10 - - - -
19/09:00pm 25.3 WSW 4 6 1012.8 - 0.0 - - 10 - - - -
19/08:30pm 25.3 W 3 6 1012.7 - 0.0 - - 10 - - - -
19/08:00pm 25.8 WSW 4 8 1012.5 - 0.0 - - 10 - - - -
19/07:30pm 26.1 WSW 5 10 1012.4 - 0.0 - - 10 - - - -
19/07:00pm 26.3 WSW 6 11 1012.2 - 0.0 - - 10 - - - -
19/06:30pm 26.8 W 6 12 1012.0 - 0.0 - - 10 - - - -
19/06:00pm 27.3 W 6 10 1011.8 - 0.0 - - 10 - - - -
19/05:30pm 28.2 WSW 6 10 1011.4 - 0.0 - - 10 - - - -
19/05:00pm 28.5 W 6 11 1011.2 - 0.0 - - 10 - - - -
19/04:30pm 28.9 W 6 11 1011.0 - 0.0 - - 10 - - - -
19/04:00pm 29.6 W 7 15 1010.8 - 0.0 - - 10 - - - -
19/03:30pm 30.1 W 8 14 1010.9 - 0.0 - - 10 - - - -
19/03:00pm 30.0 WNW 7 14 1010.7 - 0.0 - - 10 - - - -
19/02:30pm 31.5 WNW 7 11 1010.8 - 0.0 - - 10 - - - -
19/02:00pm 30.7 WNW 8 12 1011.0 - 0.0 - - 10 - - - -
19/01:30pm 31.0 WNW 8 12 1011.4 - 0.0 - - 10 - - - -
19/01:00pm 30.9 W 7 14 1011.9 - 0.0 - - 10 - - - -

Other Formats:

Comma delimited format used in spreadsheet applications
http://www.bom.gov.au/fwo/IDW60701/IDW60701.99206.axf

JavaScript Object Notation format (JSON) in row-major order
http://www.bom.gov.au/fwo/IDW60701/IDW60701.99206.json